Regional Weather Roundup
Issued by NWS Charleston, SC

Current Version | Previous Version | Graphics & Text | Print | Product List | Glossary On
Versions: 1 2 3 4 5 6 7 8 9 10 11 12 13 14 15 16 17 18 19 20 21 22 23 24 25 26 27 28 29 30 31 32 33 34 35 36 37 38 39 40 41 42 43 44 45 46 47 48 49 50
194
ASUS42 KCHS 050913
RWRCHS

REGIONAL WEATHER ROUNDUP
NATIONAL WEATHER SERVICE CHARLESTON SC
500 AM EDT THU MAY 05 2016

NOTE: "FAIR" INDICATES FEW OR NO CLOUDS BELOW 12,000 FEET WITH NO
SIGNIFICANT WEATHER AND/OR OBSTRUCTIONS TO VISIBILITY.

NOT ALL STATIONS ARE QUALITY CONTROLLED. USE DATA WITH CAUTION...
ESPECIALLY DEWPOINT OBSERVATIONS.

SCZ027-030-031-034>040-042>050-051000-
...SOUTHEAST SOUTH CAROLINA...

CITY           SKY/WX    TMP DP  RH WIND       PRES   REMARKS
N CHARLESTON   CLEAR     58  47  66 W9        29.59S
WATERFRONT PRK   N/A     62  48  60 W5        29.58S
MOUNT PLEASANT FAIR      59  48  67 CALM      29.58F
JOHNS ISLAND   FAIR      57  50  77 W7        29.59F
PINOPOLIS        N/A     63  52  67 W9        29.52S
MONCKS CORNER  FAIR      52  45  76 CALM      29.58S
SUMMERVILLE    FAIR      50  50 100 CALM      29.59F
BEAUFORT MCAS  CLEAR     57  49  74 W6        29.61F
BEAUFORT ARPT  FAIR      61  46  59 W5        29.61F
HILTON HEAD IS CLEAR     61  48  63 CALM      29.64S
WALTERBORO     MOSUNNY   55  50  82 W6        29.61S
ALLENDALE      FAIR      55  50  82 CALM      29.61S

...SOUTHERN MIDLANDS AND PEE DEE...

CITY           SKY/WX    TMP DP  RH WIND       PRES   REMARKS
GEORGETOWN     FAIR      52  46  82 W5        29.57S
KINGSTREE      FAIR      52  46  82 CALM      29.57R
ORANGEBURG     MOCLDY    57  46  66 W7        29.59S
BARNWELL       FAIR      55  52  88 CALM      29.62S
AIKEN          FAIR      52  45  76 W8        29.65S
MANNING        FAIR      54  46  76 CALM      29.57S
COLUMBIA       PTCLDY    57  46  66 W7        29.58S
SUMTER         PTCLDY    55  47  77 W9        29.54S
FLORENCE       MOCLDY    56  50  80 W5        29.55S
MYRTLE BEACH   CLEAR     57  46  67 W6        29.56F
N MYRTLE BEACH CLEAR     58  49  72 W8        29.53F

$$

GAZ063-065-086>088-099>101-113>116-118-119-134>141-150-051000-
...SOUTHEAST GEORGIA...

CITY           SKY/WX    TMP DP  RH WIND       PRES   REMARKS
SAVANNAH ARPT  CLEAR     55  49  80 W6        29.64S
HUNTER AAF     NOT AVBL
FORT STEWART   CLEAR     59  48  67 W6        29.63R
STATESBORO     CLEAR     59  54  84 W6        29.65R
SYLVANIA       SUNNY     56  53  90 NW6       29.64R
CLAXTON        FAIR      56  52  89 SW6       29.66S

...CSRA...CENTRAL AND FAR SOUTHEAST GEORGIA...

CITY           SKY/WX    TMP DP  RH WIND       PRES   REMARKS
THOMSON        CLEAR     55  51  86 W8        29.70R
AUGUSTA-BUSH   CLEAR     56  49  77 NW9       29.63R
AUGUSTA-DANIEL CLEAR     57  46  66 NW10      29.64R
SWAINSBORO     FAIR      55  50  82 NW9       29.67S
VIDALIA        CLEAR     55  50  82 W8        29.69R
EASTMAN        FAIR      56  51  81 NW6       29.73S
HAZLEHURST     FAIR      57  51  80 W3        29.69R
ALMA           CLEAR     59  50  72 W8        29.69R
WAYCROSS       CLEAR     58  50  75 W9        29.69S
JESUP          FAIR      59  52  77 W5        29.68R
BAXLEY         FAIR      59  52  77 NW7       29.68S
BRUNSWICK      CLEAR     63  54  72 W5        29.67F
SAINT SIMONS   CLEAR     60  50  69 W9        29.66S

$$

SCZ027-028-034-036>038-045-046-048>050-GAZ119-141-051000-
...LAKE AND SUPPLEMENTAL COASTAL OBSERVATIONS...

STATION/POSITION TIME  TEMP    WIND        PRES    WAVE   SWELL
                       AIR SEA DIR/SP/G            HT/PER HT/PER/DIR
                 (UTC) (F)     (DEG/KT/KT) (MB)    (FT/S) (FT/S/D)
WINYAH BAY       NOT AVBL
LAKE MURRAY      0800   59     300/  4/  6 1001.4F
ACE BASIN NERRS  NOT AVBL
FORT PULASKI     0800   64 75  300/ 12/ 16 1003.7S
SAPELO ISLAND    0800   62     280/  6     1004.0S

$$

ANZ835-935-AMZ111-154-330-350-352-354-370-450-454-472-051000-
...C-MAN AND BUOY OBSERVATIONS...

STATION/POSITION TIME  TEMP    WIND        PRES    WAVE   SWELL
                       AIR SEA DIR/SP/G            HT/PER HT/PER/DIR
                 (UTC) (F)     (DEG/KT/KT) (MB)    (FT/S) (FT/S/D)
BUOY 41004       0850   70 74  300/ 17/ 21 1000.7F   3/ 5   2/ 8
BUOY 41008       NOT AVBL
FOLLY BEACH CMAN 0800   59     280/  5/  8 1002.2F
CAPERS NEARSHORE 0808   66 70  300/ 12/ 16 1001.3F
FRIPP NEARSHORE  0808   65 69  310/ 12/ 16 1002.1F


STATION/POSITION TIME  TEMP    WIND        PRES    WAVE   SWELL
                       AIR SEA DIR/SP/G            HT/PER HT/PER/DIR
                 (UTC) (F)     (DEG/KT/KT) (MB)    (FT/S) (FT/S/D)
5E ST. MARYS GA  0821      71                N/A     3/ 3
FRYING PAN BUOY  0800   69 71  290/ 12/ 14  999.3F
BUOY 41025       0850   63 71   40/ 16/ 17  999.0F   4/ 8   2/150/ 8
CAPE LOOKOUT NC  0800   63      40/ 14/ 15  999.1F
BUOY 41002       0850   72 73  170/ 12/ 14  999.1F   5/ 7   3/190/ 7
BUOY 41010       0820   72 78  320/ 17/ 19 1002.1R
ST AUGUSTINE FL  0900   59 70  280/  7/  8 1006.8R


$$




USA.gov is the U.S. government's official web portal to all federal, state and local government web resources and services.